METAR Formatted Surface Weather Observation
Issued by NWS

Home | Current Version | Previous Version | Text Only | Print | Product List | Glossary On
Versions: 1 2
000
SAUS70 KEPZ 181802
MTR5T6

METAR K5T6 181750Z 08004KT 10SM FEW070 BKN250 30/14 A3007 RMK
UNOFFICIAL=




































USA.gov is the U.S. government's official web portal to all federal, state and local government web resources and services.